FW2485 Weather Reports


time (UTC)temp
C
wind
direction
speed
KPH
gust
KPH
rain 1hr
cm
rain 24hr
cm
rain mn
cm
humidity
%
barometer
mb
20260507065414 11 89 3.2 8.0 0.00 0.00 0.00 79 1011.6
20260507064906 11 253 3.2 8.0 0.00 0.00 0.00 79 1011.5
20260507064406 11 241 3.2 8.0 0.00 0.00 0.00 80 1011.5
20260507064157 11 241 1.6 8.0 0.00 0.00 0.00 80 1011.5
20260507063403 11 213 1.6 6.4 0.00 0.00 0.00 80 1011.5
20260507062903 11 124 3.2 8.0 0.00 0.00 0.00 80 1011.6
20260507062402 11 202 3.2 8.0 0.00 0.00 0.00 81 1011.6
20260507061903 11 274 3.2 8.0 0.00 0.00 0.00 82 1011.6
20260507061403 11 135 3.2 8.0 0.00 0.00 0.00 82 1011.5
20260507060902 10 241 3.2 8.0 0.00 0.00 0.00 83 1011.4
20260507060405 10 269 1.6 9.7 0.00 0.00 0.00 83 1011.5
20260507055903 10 100 3.2 9.7 0.00 0.00 0.00 84 1011.4
20260507055402 10 321 3.2 8.0 0.00 0.00 0.00 85 1011.2
20260507054902 10 257 3.2 9.7 0.00 0.00 0.00 85 1011.2
20260507054404 10 279 3.2 9.7 0.00 0.00 0.00 85 1011.2
20260507054206 10 274 3.2 9.7 0.00 0.00 0.00 86 1011.2
20260507053700 10 293 3.2 9.7 0.00 0.00 0.00 86 1011.2
20260507053006 9 107 3.2 6.4 0.00 0.00 0.00 86 1011.1
20260507052946 9 234 3.2 8.0 0.00 0.00 0.00 86 1011.2
20260507051905 9 206 3.2 8.0 0.00 0.00 0.00 86 1010.9
20260507051402 9 255 1.6 8.0 0.00 0.00 0.00 87 1010.8
20260507051159 9 255 1.6 4.8 0.00 0.00 0.00 87 1010.8
20260507050403 9 331 1.6 11.3 0.00 0.00 0.00 87 1010.8
20260507045906 9 274 3.2 11.3 0.00 0.00 0.00 87 1010.7
20260507045404 9 241 3.2 11.3 0.00 0.00 0.00 88 1010.7
20260507044904 9 216 3.2 9.7 0.00 0.00 0.00 87 1010.6
20260507044404 8 340 3.2 8.0 0.00 0.00 0.00 87 1010.6
20260507043903 8 340 3.2 8.0 0.00 0.00 0.00 87 1010.6
20260507043403 8 63 3.2 9.7 0.00 0.00 0.00 87 1010.6
20260507042905 8 250 1.6 9.7 0.00 0.00 0.00 87 1010.5
20260507042401 8 296 1.6 6.4 0.00 0.00 0.00 87 1010.5
20260507041855 8 89 3.2 6.4 0.00 0.00 0.00 87 1010.4
20260507041349 8 262 3.2 6.4 0.00 0.00 0.00 87 1010.4
20260507040842 8 262 1.6 6.4 0.00 0.00 0.00 87 1010.4
20260507040342 8 232 1.6 9.7 0.00 0.00 0.00 87 1010.3
20260507035835 8 276 3.2 9.7 0.00 0.00 0.00 87 1010.2
20260507035433 9 35 1.6 6.4 0.00 0.00 0.00 86 1010.2
20260507035415 9 286 3.2 8.0 0.00 0.00 0.00 86 1010.1
20260507034337 9 126 1.6 6.4 0.00 0.00 0.00 86 1010.1
20260507033833 9 28 1.6 6.4 0.00 0.00 0.00 86 1010.1
20260507033333 9 1 1.6 8.0 0.00 0.00 0.00 86 1010.0
20260507032833 9 223 1.6 8.0 0.00 0.00 0.00 85 1010.0
20260507032628 9 269 1.6 6.4 0.00 0.00 0.00 85 1010.0
20260507031830 9 300 3.2 6.4 0.00 0.00 0.00 85 1010.1
20260507031331 9 98 3.2 6.4 0.00 0.00 0.00 85 1010.0
20260507030831 10 314 1.6 6.4 0.00 0.00 0.00 85 1010.1
20260507030332 10 206 1.6 6.4 0.00 0.00 0.00 84 1009.9
20260507025831 10 1 1.6 6.4 0.00 0.00 0.00 84 1009.9
20260507025332 10 299 1.6 6.4 0.00 0.00 0.00 84 1009.8
20260507024827 10 46 3.2 9.7 0.00 0.00 0.00 84 1009.8
20260507024327 10 331 3.2 9.7 0.00 0.00 0.00 84 1009.8
20260507023826 10 252 3.2 9.7 0.00 0.00 0.00 84 1009.9
20260507023326 10 223 3.2 9.7 0.00 0.00 0.00 84 1009.8
20260507022822 10 262 3.2 9.7 0.00 0.00 0.00 84 1009.8
20260507022322 10 250 3.2 9.7 0.00 0.00 0.00 84 1009.8
20260507021823 10 197 3.2 8.0 0.00 0.00 0.00 83 1009.8
20260507021324 10 223 3.2 11.3 0.00 0.00 0.00 83 1009.7
20260507020824 10 331 3.2 11.3 0.00 0.00 0.00 83 1009.7
20260507020323 10 240 1.6 6.4 0.00 0.00 0.00 83 1009.7
20260507015916 10 250 3.2 11.3 0.00 0.00 0.00 83 1009.7
20260507015900 10 269 1.6 8.0 0.00 0.00 0.00 83 1009.6
20260507014820 10 276 4.8 11.3 0.00 0.00 0.00 83 1009.6
20260507014319 10 234 4.8 11.3 0.00 0.00 0.00 83 1009.6
20260507013820 10 264 4.8 14.5 0.00 0.00 0.00 83 1009.5
20260507013316 10 229 4.8 14.5 0.00 0.00 0.00 84 1009.5
20260507012817 10 258 3.2 14.5 0.00 0.00 0.00 84 1009.5
20260507012316 10 322 3.2 11.3 0.00 0.00 0.00 84 1009.3
20260507011826 10 35 3.2 11.3 0.00 0.00 0.00 84 1009.3
20260507011316 10 279 3.2 11.3 0.00 0.00 0.00 83 1009.2
20260507010821 10 178 3.2 11.3 0.00 0.00 0.00 84 1009.2
20260507010316 11 269 4.8 11.3 0.00 0.00 0.00 84 1009.0
20260507005816 11 1 4.8 11.3 0.00 0.00 0.00 83 1009.0
20260507005615 11 228 4.8 14.5 0.00 0.00 0.00 83 1008.9
20260507004817 11 269 4.8 14.5 0.00 0.00 0.00 83 1009.0
20260507004633 11 286 4.8 9.7 0.00 0.00 0.00 83 1009.0
20260507003814 11 250 4.8 14.5 0.00 0.00 0.00 83 1009.2
20260507003314 11 89 4.8 14.5 0.00 0.00 0.00 83 1009.3
20260507002814 11 260 4.8 11.3 0.00 0.00 0.00 83 1009.2
20260507002312 11 223 4.8 12.9 0.00 0.00 0.00 83 1009.2
20260507002112 11 257 3.2 12.9 0.00 0.00 0.00 83 1009.0
20260507001311 11 276 3.2 9.7 0.00 0.00 0.00 83 1008.9
20260507000812 11 269 3.2 12.9 0.00 0.00 0.00 82 1009.0
20260507000314 11 56 3.2 12.9 0.00 0.00 0.00 82 1009.0
20260506235812 11 264 3.2 11.3 0.00 0.00 0.00 82 1009.0
20260506235310 11 277 3.2 11.3 0.00 0.00 0.00 82 1009.0
20260506234809 11 229 3.2 11.3 0.00 0.00 0.00 82 1009.0
20260506234311 11 291 4.8 11.3 0.00 0.00 0.00 82 1009.0
20260506233810 11 223 4.8 14.5 0.00 0.00 0.00 82 1009.2
20260506233310 11 269 4.8 14.5 0.00 0.00 0.00 82 1009.2
20260506232811 11 248 4.8 20.9 0.00 0.00 0.00 82 1009.2
20260506232616 11 227 4.8 20.9 0.00 0.00 0.00 82 1009.2
20260506231812 11 269 3.2 14.5 0.00 0.00 0.00 83 1009.0
20260506231310 11 238 4.8 14.5 0.00 0.00 0.00 83 1009.0
20260506230804 11 296 4.8 14.5 0.00 0.00 0.00 83 1009.0
20260506230304 12 233 4.8 12.9 0.00 0.00 0.00 83 1008.9
20260506225803 12 119 4.8 12.9 0.00 0.00 0.00 83 1008.9
20260506225602 12 262 4.8 16.1 0.00 0.00 0.00 84 1008.9
20260506224803 12 250 3.2 16.1 0.00 0.00 0.00 84 1008.9
20260506224302 12 186 3.2 14.5 0.00 0.00 0.00 84 1008.8
20260506224107 12 271 3.2 14.5 0.00 0.00 0.00 84 1008.8
20260506223302 12 292 3.2 12.9 0.00 0.00 0.00 84 1008.7
20260506222802 12 143 3.2 11.3 0.00 0.00 0.00 84 1008.7
20260506222305 12 100 3.2 11.3 0.00 0.00 0.00 84 1008.7
20260506221804 12 223 3.2 9.7 0.00 0.00 0.00 84 1008.7
20260506221303 12 308 3.2 9.7 0.00 0.00 0.00 85 1008.7
20260506220802 12 317 3.2 9.7 0.00 0.00 0.00 85 1008.6
20260506220302 12 115 3.2 12.9 0.00 0.00 0.00 85 1008.6
20260506215801 12 232 3.2 12.9 0.00 0.00 0.00 85 1008.6
20260506215259 12 253 3.2 6.4 0.00 0.00 0.00 85 1008.5
20260506214757 12 314 1.6 8.0 0.00 0.00 0.00 85 1008.4
20260506214257 12 89 3.2 12.9 0.00 0.00 0.00 84 1008.3
20260506213754 12 178 4.8 12.9 0.00 0.00 0.00 84 1008.4
20260506213255 12 231 4.8 14.5 0.00 0.00 0.00 84 1008.3
20260506213057 12 241 4.8 14.5 0.00 0.00 0.00 84 1008.3
20260506212253 12 259 4.8 12.9 0.00 0.00 0.00 83 1008.4
20260506211752 12 302 3.2 11.3 0.00 0.00 0.00 83 1008.2
20260506211551 12 237 3.2 11.3 0.00 0.00 0.00 82 1008.2
20260506210752 12 241 3.2 11.3 0.00 0.00 0.00 82 1008.2
20260506210251 12 289 1.6 6.4 0.00 0.00 0.00 82 1008.1
20260506210128 12 216 1.6 6.4 0.00 0.00 0.00 81 1008.1
20260506205253 12 344 3.2 8.0 0.00 0.00 0.00 81 1008.0
20260506205050 12 276 3.2 8.0 0.00 0.00 0.00 80 1007.8
20260506204253 12 269 1.6 9.7 0.00 0.00 0.00 80 1007.9
20260506203739 12 223 3.2 9.7 0.00 0.00 0.00 79 1007.9
20260506203233 12 290 3.2 11.3 0.00 0.00 0.00 79 1008.0
20260506202730 12 255 3.2 11.3 0.00 0.00 0.00 78 1008.0
20260506202230 12 271 3.2 11.3 0.00 0.00 0.00 78 1007.8
20260506201730 12 89 3.2 11.3 0.00 0.00 0.00 77 1007.9
20260506201231 13 197 4.8 11.3 0.00 0.00 0.00 77 1007.8
20260506200736 13 232 4.8 12.9 0.00 0.00 0.00 77 1007.8
20260506200235 13 250 3.2 14.5 0.00 0.00 0.00 77 1007.8
20260506200101 13 264 3.2 9.7 0.00 0.00 0.00 76 1007.5
20260506195942 13 223 3.2 14.5 0.00 0.00 0.00 76 1007.8
20260506195346 13 89 3.2 11.3 0.00 0.00 0.00 76 1007.7
20260506194233 13 135 3.2 9.7 0.00 0.00 0.00 76 1007.4
20260506193733 14 241 3.2 9.7 0.00 0.00 0.00 75 1007.1
20260506193232 14 257 3.2 12.9 0.00 0.00 0.00 75 1007.0
20260506192732 14 231 4.8 16.1 0.00 0.00 0.00 74 1006.7
20260506192230 14 255 4.8 16.1 0.00 0.00 0.00 73 1006.8
20260506191730 14 206 4.8 14.5 0.00 0.00 0.00 72 1006.7
20260506191231 14 178 4.8 14.5 0.00 0.00 0.00 72 1006.5
20260506190733 14 262 4.8 14.5 0.00 0.00 0.00 71 1006.4
20260506190229 15 183 3.2 12.9 0.00 0.00 0.00 70 1006.2
20260506185730 15 269 3.2 12.9 0.00 0.00 0.00 71 1006.2
20260506185231 15 165 3.2 12.9 0.00 0.00 0.00 71 1006.0
20260506184729 15 333 3.2 11.3 0.00 0.00 0.00 73 1005.9
20260506184231 15 279 4.8 12.9 0.00 0.00 0.00 74 1005.8
20260506183730 15 229 4.8 12.9 0.00 0.00 0.00 75 1005.7
20260506183232 15 238 4.8 12.9 0.00 0.00 0.00 77 1005.6
20260506183024 15 269 3.2 11.3 0.00 0.00 0.00 77 1005.6
20260506182229 15 264 3.2 11.3 0.00 0.00 0.00 76 1005.4
20260506181727 15 211 3.2 8.0 0.00 0.00 0.00 77 1005.3
20260506181229 15 236 3.2 9.7 0.00 0.00 0.00 77 1005.3
20260506180727 15 130 3.2 11.3 0.00 0.00 0.00 77 1005.1
20260506180228 15 230 1.6 11.3 0.00 0.00 0.00 77 1005.0
20260506180031 15 98 1.6 8.0 0.00 0.00 0.00 77 1004.9
20260506175230 15 46 1.6 6.4 0.00 0.00 0.00 77 1004.7
20260506174726 16 234 1.6 6.4 0.00 0.00 0.00 78 1004.6
20260506174226 16 142 3.2 8.0 0.00 0.00 0.00 78 1004.4
20260506173727 16 82 3.2 8.0 0.00 0.00 0.00 77 1004.3
20260506173226 16 46 1.6 8.0 0.00 0.03 0.00 77 1004.1
20260506172726 16 1 3.2 6.4 0.00 0.03 0.00 77 1004.1
20260506172226 16 161 3.2 9.7 0.00 0.03 0.00 76 1003.8
20260506171726 16 58 3.2 9.7 0.00 0.03 0.00 75 1003.7
20260506171228 16 148 4.8 9.7 0.00 0.05 0.00 74 1004.0
20260506170727 16 132 4.8 11.3 0.00 0.05 0.00 73 1004.1
20260506170230 17 82 4.8 17.7 0.00 0.05 0.00 73 1004.2
20260506170016 17 223 4.8 17.7 0.00 0.08 0.00 72 1003.9
20260506165220 17 168 6.4 20.9 0.00 0.08 0.00 70 1003.9
20260506164720 18 244 6.4 20.9 0.00 0.08 0.00 68 1003.9
20260506164329 18 113 4.8 12.9 0.00 0.08 0.00 62 1003.9
20260506164309 18 28 4.8 12.9 0.00 0.08 0.00 64 1003.8
20260506163515 18 169 4.8 9.7 0.00 0.08 0.00 59 1004.3
20260506162719 19 127 3.2 8.0 0.00 0.13 0.00 58 1004.3
20260506162554 19 201 3.2 8.0 0.00 0.15 0.00 58 1004.4
20260506161719 19 89 1.6 8.0 0.00 0.20 0.00 57 1004.4
20260506161215 20 59 1.6 6.4 0.00 0.20 0.00 56 1004.2
20260506161010 20 250 1.6 4.8 0.00 0.20 0.00 55 1004.2
20260506160216 20 1 1.6 4.8 0.00 0.20 0.00 53 1004.2
20260506155715 20 241 1.6 4.8 0.00 0.20 0.00 51 1004.1
20260506155508 20 63 0.0 3.2 0.00 0.20 0.00 54 1003.9
20260506154712 20 135 0.0 3.2 0.00 0.23 0.00 53 1003.8
20260506154211 20 117 0.0 3.2 0.00 0.23 0.00 53 1004.0
20260506153715 20 178 1.6 3.2 0.00 0.23 0.00 53 1004.0
20260506153208 20 46 0.0 3.2 0.00 0.23 0.00 53 1004.0
20260506152707 20 223 0.0 3.2 0.00 0.23 0.00 54 1003.9
20260506152210 20 269 1.6 4.8 0.00 0.23 0.00 53 1003.9
20260506151706 20 178 1.6 4.8 0.00 0.23 0.00 54 1003.9
20260506151205 20 245 1.6 6.4 0.00 0.23 0.00 55 1004.0
20260506150706 20 113 1.6 6.4 0.00 0.23 0.00 54 1003.8
20260506150507 20 72 1.6 3.2 0.00 0.23 0.00 56 1003.9
20260506145703 20 178 1.6 4.8 0.00 0.23 0.00 56 1003.9
20260506145203 20 292 1.6 4.8 0.00 0.23 0.00 54 1003.9
20260506144704 20 314 3.2 6.4 0.00 0.23 0.00 54 1004.0
20260506144202 20 63 3.2 6.4 0.00 0.23 0.00 54 1004.0
20260506143703 20 250 1.6 4.8 0.00 0.23 0.00 55 1003.9
20260506143204 20 89 1.6 6.4 0.00 0.23 0.00 55 1004.0
20260506142702 20 89 1.6 6.4 0.00 0.23 0.00 55 1004.1
20260506142202 20 46 1.6 8.0 0.00 0.23 0.00 54 1004.2
20260506141706 20 89 3.2 8.0 0.00 0.23 0.00 53 1004.2
20260506141203 20 46 3.2 8.0 0.00 0.23 0.00 53 1004.1
20260506140954 20 1 3.2 9.7 0.00 0.23 0.00 53 1004.2
20260506140203 21 107 3.2 9.7 0.00 0.23 0.00 52 1004.2
20260506140011 21 84 1.6 6.4 0.00 0.23 0.00 53 1004.2
20260506135202 20 117 1.6 6.4 0.00 0.23 0.00 53 1004.3
20260506134702 21 67 1.6 6.4 0.00 0.23 0.00 52 1004.3
20260506134201 21 117 1.6 6.4 0.00 0.23 0.00 52 1004.3
20260506133703 21 89 1.6 6.4 0.00 0.23 0.00 52 1004.3
20260506133203 21 89 1.6 6.4 0.00 0.23 0.00 51 1004.4
20260506132705 21 84 1.6 6.4 0.00 0.23 0.00 54 1004.5
20260506132209 21 152 1.6 4.8 0.00 0.23 0.00 53 1004.6
20260506131705 21 89 1.6 9.7 0.00 0.23 0.00 52 1004.7
20260506131205 21 269 3.2 9.7 0.00 0.23 0.00 52 1004.8
20260506130658 21 72 3.2 8.0 0.00 0.23 0.00 52 1004.8
20260506130152 21 130 3.2 8.0 0.00 0.23 0.00 51 1004.7
20260506125646 21 68 3.2 9.7 0.00 0.23 0.00 50 1004.7
20260506125146 22 89 3.2 9.7 0.00 0.23 0.00 51 1004.8
20260506124642 22 76 1.6 8.0 0.00 0.23 0.00 52 1004.8
20260506124437 22 46 1.6 6.4 0.00 0.23 0.00 54 1004.7
20260506123642 21 152 3.2 8.0 0.00 0.23 0.00 52 1004.7
20260506123141 22 223 3.2 9.7 0.00 0.23 0.00 53 1004.9
20260506122940 21 46 3.2 9.7 0.00 0.23 0.00 55 1004.9
20260506122142 21 223 1.6 6.4 0.00 0.23 0.00 55 1004.9
20260506121643 21 124 3.2 11.3 0.00 0.23 0.00 55 1004.9
20260506121141 21 121 3.2 11.3 0.00 0.23 0.00 55 1005.1
20260506120945 21 121 3.2 9.7 0.00 0.23 0.00 56 1005.1
20260506120248 21 286 3.2 9.7 0.00 0.23 0.00 56 1005.4
20260506120230 21 213 3.2 9.7 0.00 0.23 0.00 55 1005.3
20260506115141 21 89 3.2 9.7 0.00 0.23 0.00 56 1005.5
20260506114637 21 234 3.2 9.7 0.00 0.23 0.00 56 1005.4
20260506114133 20 56 3.2 12.9 0.00 0.23 0.00 58 1005.5
20260506113632 20 67 3.2 12.9 0.00 0.23 0.00 60 1005.6
20260506113455 20 89 4.8 12.9 0.00 0.23 0.00 60 1005.7
20260506112633 20 51 4.8 12.9 0.00 0.23 0.00 60 1005.6
20260506112132 19 89 4.8 11.3 0.00 0.23 0.00 60 1005.6
20260506111631 19 139 3.2 8.0 0.00 0.23 0.00 62 1005.6
20260506111131 19 164 3.2 9.7 0.00 0.23 0.00 61 1005.7
20260506110631 18 148 3.2 9.7 0.00 0.23 0.00 62 1005.8
20260506110132 18 264 3.2 8.0 0.00 0.23 0.00 63 1005.7
20260506105938 18 178 3.2 8.0 0.00 0.23 0.00 64 1005.9
20260506105131 18 223 3.2 8.0 0.00 0.23 0.00 64 1005.9
20260506104631 18 286 4.8 11.3 0.00 0.23 0.00 63 1006.0
20260506104433 18 274 4.8 11.3 0.00 0.23 0.00 63 1006.2
20260506103632 18 108 3.2 14.5 0.00 0.23 0.00 63 1006.3
20260506103133 19 269 3.2 14.5 0.00 0.23 0.00 62 1006.4
20260506102631 19 107 3.2 11.3 0.00 0.23 0.00 63 1006.2
20260506102131 19 86 3.2 11.3 0.00 0.23 0.00 64 1006.3
20260506101631 18 178 3.2 8.0 0.00 0.23 0.00 64 1006.3
20260506101132 18 117 3.2 8.0 0.00 0.23 0.00 65 1006.2
20260506100632 18 129 3.2 8.0 0.00 0.23 0.00 66 1006.3
20260506100133 18 82 3.2 9.7 0.00 0.23 0.00 67 1006.2
20260506095733 18 46 3.2 11.3 0.00 0.23 0.00 67 1006.3
20260506095714 18 223 3.2 9.7 0.00 0.23 0.00 67 1006.3
20260506094632 18 89 4.8 11.3 0.00 0.23 0.00 67 1006.3
20260506094130 18 86 4.8 11.3 0.00 0.23 0.00 66 1006.3
20260506093631 18 84 4.8 11.3 0.00 0.23 0.00 66 1006.4
20260506093131 18 112 3.2 11.3 0.00 0.23 0.00 67 1006.3
20260506092631 18 89 3.2 11.3 0.00 0.23 0.00 67 1006.5
20260506092129 18 79 3.2 11.3 0.00 0.23 0.00 67 1006.4
20260506091631 17 107 3.2 11.3 0.00 0.23 0.00 68 1006.5
20260506091428 17 115 3.2 8.0 0.00 0.23 0.00 68 1006.4
20260506090631 17 254 3.2 9.7 0.00 0.23 0.00 67 1006.5
20260506090134 17 200 3.2 11.3 0.00 0.23 0.00 67 1006.6
20260506085935 18 89 3.2 11.3 0.00 0.23 0.00 68 1006.6
20260506085133 18 344 3.2 8.0 0.00 0.23 0.00 68 1006.6
20260506084630 18 84 3.2 8.0 0.00 0.23 0.00 69 1006.5
20260506084131 17 117 3.2 11.3 0.00 0.23 0.00 71 1006.7
20260506083933 17 75 3.2 11.3 0.00 0.23 0.00 71 1006.6
20260506083129 17 250 3.2 8.0 0.00 0.23 0.00 73 1006.5
20260506082933 16 84 3.2 9.7 0.00 0.23 0.00 74 1006.6
20260506082128 16 63 3.2 9.7 0.00 0.23 0.00 75 1006.8
20260506081632 16 269 3.2 9.7 0.00 0.23 0.00 76 1006.9
20260506081130 16 135 3.2 9.7 0.00 0.23 0.00 76 1006.9
20260506080631 15 67 3.2 9.7 0.00 0.23 0.00 76 1006.9
20260506080124 15 35 3.2 9.7 0.00 0.23 0.00 77 1007.0
20260506073114 15 0 3.2 9.7 0.00 0.23 0.00 78 1006.8
20260506072614 15 241 3.2 9.7 0.00 0.23 0.00 78 1006.9
20260506072114 15 135 3.2 8.0 0.00 0.23 0.00 79 1006.8
20260506071612 15 165 3.2 9.7 0.00 0.23 0.00 79 1006.9
20260506071114 15 105 3.2 9.7 0.00 0.23 0.00 80 1006.8
20260506070612 14 161 3.2 9.7 0.00 0.23 0.00 80 1006.9
20260506070111 14 68 3.2 8.0 0.00 0.23 0.00 80 1006.9